Home > Weather > Bad Kissingen > Past weeks

Flag for Germany Past Weather in Bad Kissingen, Bavaria, Germany — Yesterday and Last 2 Weeks

Now
59 °F

Clear.


Feels Like: 59 °F
Forecast: 60 / 73 °F
Wind: No wind

Location: Illesheim

Current Time: Jul 28, 2016 at 3:09:47 AM

Latest Report: Jul 28, 2016 at 1:58 AM


Visibility: N/A

Pressure: 30.05 "Hg

Humidity: 88%

Dew Point: 55 °F

Location of Bad KissingenLocation

Past Weather in Bad Kissingen — Graph

°F

Bad Kissingen Temperature Yesterday

Maximum temperature yesterday: 81 °F (at 2:58 PM)
Minimum temperature yesterday: 62 °F (at 11:58 PM)
Average temperature yesterday: 71 °F

High & Low Weather Summary for the Past Weeks

 TemperatureHumidityPressure
High90 °F (Jul 20, 4:58 PM)100% (Jul 22, 12:58 AM)30.35 "Hg (Jul 22, 12:58 AM)
Low44 °F (Jul 16, 5:58 AM)31% (Jul 20, 3:58 PM)29.87 "Hg (Jul 21, 3:58 AM)
Average67 °F74%30.09 "Hg
* Reported Jul 13 1:58 AM — Jul 28 1:58 AM, Bad Kissingen, Weather by CustomWeather, © 2016

Note: Actual official high and low records may vary slightly from our data, if they occured in-between our weather recording intervals... More about our weather records

Advertising

Bad Kissingen Weather History for the Previous 24 Hours

Scroll right to see more
 ConditionsComfort  
Time TempWeatherWind HumidityBarometerVisibility
1:58 AM
Thu, Jul 28
59 °FClear.No wind88%30.05 "HgN/A
12:58 AM59 °FClear.3 mph84%30.05 "HgN/A
11:58 PM
Wed, Jul 27
62 °FClear.3 mph84%30.05 "HgN/A
10:58 PM66 °FPassing clouds.3 mph73%30.05 "HgN/A
9:58 PM68 °FScattered clouds.5 mph68%30.04 "HgN/A
8:58 PM72 °FPassing clouds.5 mph61%30.01 "HgN/A
7:58 PM75 °FPassing clouds.7 mph54%30.01 "HgN/A
6:58 PM77 °FScattered clouds.9 mph47%29.99 "HgN/A
5:58 PM79 °FPassing clouds.12 mph45%29.97 "HgN/A
4:58 PM80 °FSunny.15 mph46%29.97 "HgN/A
3:58 PM80 °FSunny.14 mph42%29.98 "HgN/A
2:58 PM81 °FPassing clouds.15 mph51%29.98 "HgN/A
1:58 PM78 °FScattered clouds.10 mph61%29.99 "HgN/A
12:58 PM77 °FPassing clouds.12 mph62%30.01 "HgN/A
11:58 AM76 °FBroken clouds.7 mph67%30.04 "HgN/A
10:58 AM73 °FBroken clouds.6 mph74%30.05 "HgN/A
9:58 AM71 °FOvercast.6 mph83%30.04 "HgN/A
8:58 AM70 °FScattered clouds.10 mph83%30.04 "HgN/A
7:58 AM66 °FFog.No wind94%30.04 "Hg6 mi
4:58 AM64 °FMostly cloudy.No wind94%30.03 "HgN/A
3:58 AM63 °FFog.1 mph99%30.04 "Hg6 mi
Weather by CustomWeather, © 2016

See weather overviewHow to use our weather pages